FW7706 Weather Reports


time (UTC)temp
C
wind
direction
speed
KPH
gust
KPH
rain 1hr
cm
rain 24hr
cm
rain mn
cm
humidity
%
barometer
mb
20260506155836 -17 39 3.2 4.8 0.00 0.00 0.00 1016.4
20260506155332 -17 346 3.2 8.0 0.00 0.00 0.00 1015.7
20260506153445 -17 211 4.8 8.0 0.00 0.00 0.00 1014.7
20260506152942 -17 54 6.4 9.7 0.00 0.00 0.00 1015.3
20260506152439 -17 281 8.0 12.9 0.00 0.00 0.00 1016.0
20260506151938 -17 8 3.2 4.8 0.00 0.00 0.00 1016.0
20260506151434 -17 2 4.8 4.8 0.00 0.00 0.00 1015.3
20260506150932 -17 33 3.2 4.8 0.00 0.00 0.00 1015.3
20260506150428 -17 324 8.0 9.7 0.00 0.00 0.00 1015.3
20260506145925 -17 17 4.8 9.7 0.00 0.00 0.00 1015.3
20260506145421 -17 303 6.4 9.7 0.00 0.00 0.00 1015.3
20260506144919 -17 308 1.6 3.2 0.00 0.00 0.00 1015.3
20260506144415 -17 331 4.8 4.8 0.00 0.00 0.00 1015.0
20260506143914 -17 356 4.8 4.8 0.00 0.00 0.00 1014.7
20260506143410 -17 22 4.8 4.8 0.00 0.00 0.00 1014.3
20260506142908 -17 257 4.8 4.8 0.00 0.00 0.00 1014.3
20260506142407 -17 20 4.8 8.0 0.00 0.00 0.00 1014.7
20260506141904 -17 23 8.0 9.7 0.00 0.00 0.00 1014.7
20260506141402 -17 39 3.2 4.8 0.00 0.00 0.00 1014.7
20260506140900 -17 46 4.8 4.8 0.00 0.00 0.00 1014.3
20260506140357 -17 285 3.2 4.8 0.00 0.00 0.00 1014.3
20260506135854 -17 335 4.8 4.8 0.00 0.00 0.00 1014.3
20260506135351 -17 358 3.2 4.8 0.00 0.00 0.00 1014.3
20260506134847 -17 332 8.0 9.7 0.00 0.00 0.00 1014.3
20260506134343 -17 341 3.2 4.8 0.00 0.00 0.00 1014.0
20260506133840 -17 330 6.4 8.0 0.00 0.00 0.00 1014.0
20260506133337 -17 336 3.2 3.2 0.00 0.00 0.00 1014.3
20260506132833 -17 352 8.0 11.3 0.00 0.00 0.00 1014.0
20260506132331 -17 58 4.8 8.0 0.00 0.00 0.00 1014.7
20260506131829 -17 343 9.7 14.5 0.00 0.00 0.00 1014.3
20260506131325 -17 18 8.0 9.7 0.00 0.00 0.00 1014.0
20260506130822 -17 346 6.4 11.3 0.00 0.00 0.00 1014.0
20260506130318 -17 312 12.9 14.5 0.00 0.00 0.00 1014.0
20260506125816 -17 323 3.2 4.8 0.00 0.00 0.00 1014.0
20260506125314 -17 338 3.2 8.0 0.00 0.00 0.00 1014.0
20260506124813 -17 343 12.9 14.5 0.00 0.00 0.00 1014.0
20260506124309 -17 323 8.0 9.7 0.00 0.00 0.00 1014.0
20260506123807 -17 20 4.8 8.0 0.00 0.00 0.00 1014.0
20260506123305 -17 2 6.4 9.7 0.00 0.00 0.00 1013.6
20260506122802 -17 335 4.8 4.8 0.00 0.00 0.00 1013.6
20260506122259 -17 17 8.0 9.7 0.00 0.00 0.00 1013.6
20260506121757 -17 315 4.8 8.0 0.00 0.00 0.00 1013.6
20260506121253 -17 333 4.8 4.8 0.00 0.00 0.00 1013.2
20260506120751 -17 318 12.9 16.1 0.00 0.00 0.00 1013.2
20260506120249 -17 336 4.8 8.0 0.00 0.00 0.00 1013.2
20260506115746 -17 319 12.9 17.7 0.00 0.00 0.00 1012.9
20260506115244 -17 78 4.8 8.0 0.00 0.00 0.00 1012.9
20260506114742 -17 17 3.2 4.8 0.00 0.00 0.00 1012.9
20260506114239 -17 34 4.8 4.8 0.00 0.00 0.00 1012.9
20260506113738 -17 340 6.4 12.9 0.00 0.00 0.00 1012.9
20260506113235 -17 330 4.8 11.3 0.00 0.00 0.00 1012.5
20260506112731 -17 355 4.8 4.8 0.00 0.00 0.00 1012.2
20260506112229 -17 285 6.4 11.3 0.00 0.00 0.00 1012.5
20260506111726 -17 49 6.4 9.7 0.00 0.00 0.00 1012.2
20260506111224 -17 256 4.8 4.8 0.00 0.00 0.00 1012.2
20260506110721 -17 7 4.8 4.8 0.00 0.00 0.00 1012.2
20260506110218 -17 323 3.2 4.8 0.00 0.00 0.00 1011.9
20260506105714 -17 8 6.4 8.0 0.00 0.00 0.00 1011.9
20260506105211 -17 353 4.8 8.0 0.00 0.00 0.00 1011.9
20260506104710 -17 348 4.8 4.8 0.00 0.00 0.00 1011.9
20260506104207 -17 279 4.8 4.8 0.00 0.00 0.00 1011.5
20260506103704 -17 328 6.4 9.7 0.00 0.00 0.00 1011.9
20260506103200 -17 330 3.2 8.0 0.00 0.00 0.00 1011.5
20260506102659 -17 282 4.8 4.8 0.00 0.00 0.00 1011.9
20260506102156 -17 5 4.8 8.0 0.00 0.00 0.00 1011.5
20260506101653 -17 288 4.8 4.8 0.00 0.00 0.00 1011.5
20260506101150 -17 298 4.8 4.8 0.00 0.00 0.00 1011.5
20260506100648 -17 348 4.8 8.0 0.00 0.00 0.00 1011.2
20260506100146 -17 262 3.2 4.8 0.00 0.00 0.00 1011.5
20260506095644 -17 307 8.0 11.3 0.00 0.00 0.00 1011.5
20260506095140 -17 225 3.2 3.2 0.00 0.00 0.00 1011.5
20260506094638 -17 311 4.8 8.0 0.00 0.00 0.00 1011.5
20260506094136 -17 269 4.8 8.0 0.00 0.00 0.00 1011.2
20260506093634 -17 245 3.2 3.2 0.00 0.00 0.00 1011.2
20260506093131 -17 249 3.2 3.2 0.00 0.00 0.00 1010.8
20260506092629 -17 349 8.0 9.7 0.00 0.00 0.00 1010.8
20260506092125 -17 15 3.2 3.2 0.00 0.00 0.00 1010.8
20260506091623 -17 38 4.8 4.8 0.00 0.00 0.00 1010.8
20260506091121 -17 328 1.6 1.6 0.00 0.00 0.00 1011.2
20260506090619 -17 310 3.2 4.8 0.00 0.00 0.00 1011.2
20260506090115 -17 352 4.8 4.8 0.00 0.00 0.00 1011.2
20260506085612 -17 243 4.8 8.0 0.00 0.00 0.00 1010.8
20260506085108 -17 277 4.8 4.8 0.00 0.00 0.00 1010.8
20260506084605 -17 272 1.6 3.2 0.00 0.00 0.00 1010.8
20260506084101 -17 319 1.6 1.6 0.00 0.00 0.00 1010.8
20260506083558 -17 335 4.8 8.0 0.00 0.00 0.00 1010.8
20260506083056 -17 349 3.2 3.2 0.00 0.00 0.00 1010.8
20260506082552 -17 340 3.2 4.8 0.00 0.00 0.00 1010.5
20260506082048 -17 220 1.6 1.6 0.00 0.00 0.00 1010.5
20260506081546 -17 331 3.2 3.2 0.00 0.00 0.00 1010.8
20260506081043 -17 240 1.6 3.2 0.00 0.00 0.00 1010.8
20260506080541 -17 161 1.6 1.6 0.00 0.00 0.00 1010.5
20260506073525 -17 10 3.2 4.8 0.00 0.00 0.00 1010.5
20260506073021 -17 304 3.2 3.2 0.00 0.00 0.00 1010.5
20260506072519 -17 330 8.0 9.7 0.00 0.00 0.00 1010.5
20260506072016 -17 357 1.6 3.2 0.00 0.00 0.00 1010.5
20260506071514 -17 280 3.2 3.2 0.00 0.00 0.00 1010.5
20260506071011 -17 267 3.2 3.2 0.00 0.00 0.00 1010.5
20260506070508 -17 320 8.0 16.1 0.00 0.00 0.00 1010.8
20260506062446 -17 296 6.4 11.3 0.00 0.00 0.00 1010.5
20260506061942 -17 42 3.2 4.8 0.00 0.00 0.00 1010.5
20260506061438 -17 274 4.8 4.8 0.00 0.00 0.00 1010.5
20260506060936 -17 35 4.8 4.8 0.00 0.00 0.00 1010.5
20260506060434 -17 21 8.0 9.7 0.00 0.00 0.00 1010.5
20260506051406 -17 309 6.4 8.0 0.00 0.00 0.00 1010.2
20260506050903 -17 272 4.8 4.8 0.00 0.00 0.00 1010.5
20260506050401 -17 310 4.8 8.0 0.00 0.00 0.00 1010.2
20260506044851 -17 315 3.2 4.8 0.00 0.00 0.00 1010.2
20260506044349 -17 287 3.2 4.8 0.00 0.00 0.00 1010.2
20260506043845 -17 348 6.4 8.0 0.00 0.00 0.00 1009.8
20260506043342 -17 328 11.3 20.9 0.00 0.00 0.00 1009.8
20260506042841 -17 332 6.4 9.7 0.00 0.00 0.00 1010.2
20260506042340 -17 259 3.2 4.8 0.00 0.00 0.00 1009.8
20260506041838 -17 359 4.8 9.7 0.00 0.00 0.00 1009.8
20260506041335 -17 309 11.3 16.1 0.00 0.00 0.00 1009.8
20260506040832 -17 343 4.8 4.8 0.00 0.00 0.00 1009.8
20260506040329 -17 359 8.0 9.7 0.00 0.00 0.00 1009.5
20260506035825 -17 334 3.2 3.2 0.00 0.00 0.00 1009.5
20260506035323 -17 345 6.4 12.9 0.00 0.00 0.00 1009.8
20260506034820 -17 329 9.7 14.5 0.00 0.00 0.00 1009.5
20260506034317 -17 3 8.0 11.3 0.00 0.00 0.00 1009.2
20260506033814 -17 355 8.0 11.3 0.00 0.00 0.00 1009.5
20260506033311 -17 340 4.8 8.0 0.00 0.00 0.00 1009.2
20260506032808 -17 23 8.0 11.3 0.00 0.00 0.00 1009.2
20260506032306 -17 268 3.2 3.2 0.00 0.00 0.00 1009.2
20260506031801 -17 321 4.8 4.8 0.00 0.00 0.00 1008.8
20260506031259 -17 276 6.4 8.0 0.00 0.00 0.00 1008.5
20260506030757 -17 16 8.0 9.7 0.00 0.00 0.00 1008.8
20260506030254 -17 314 8.0 11.3 0.00 0.00 0.00 1008.8
20260506025751 -17 327 4.8 4.8 0.00 0.00 0.00 1008.1
20260506025247 -17 359 11.3 14.5 0.00 0.00 0.00 1008.1
20260506024744 -17 33 8.0 9.7 0.00 0.00 0.00 1008.1
20260506024241 -17 1 8.0 9.7 0.00 0.00 0.00 1008.5
20260506023737 -17 9 8.0 8.0 0.00 0.00 0.00 1007.5
20260506023234 -17 266 4.8 4.8 0.00 0.00 0.00 1007.5
20260506022731 -17 0 4.8 8.0 0.00 0.00 0.00 1007.8
20260506022229 -17 20 4.8 4.8 0.00 0.00 0.00 1007.5
20260506021727 -17 333 8.0 9.7 0.00 0.00 0.00 1007.8
20260506021224 -17 352 6.4 11.3 0.00 0.00 0.00 1007.1
20260506020720 -17 33 6.4 9.7 0.00 0.00 0.00 1007.5
20260506020218 -17 4 11.3 14.5 0.00 0.00 0.00 1007.5
20260506015715 -17 0 4.8 8.0 0.00 0.00 0.00 1007.5
20260506015213 -17 1 3.2 8.0 0.00 0.00 0.00 1007.1
20260506014710 -17 288 0.0 0.0 0.00 0.00 0.00 1006.8
20260506014206 -17 289 1.6 1.6 0.00 0.00 0.00 1006.8
20260506013704 -17 288 0.0 0.0 0.00 0.00 0.00 1006.8
20260506013201 -17 289 1.6 1.6 0.00 0.00 0.00 1006.4
20260506012657 -17 289 0.0 0.0 0.00 0.00 0.00 1006.4
20260506012154 -17 289 0.0 0.0 0.00 0.00 0.00 1006.4
20260506011651 -17 209 1.6 1.6 0.00 0.00 0.00 1006.4
20260506011147 -17 240 0.0 1.6 0.00 0.00 0.00 1006.4
20260506010646 -17 5 1.6 1.6 0.00 0.00 0.00 1006.8
20260506010143 -17 56 6.4 9.7 0.00 0.00 0.00 1006.8
20260506005639 -17 257 4.8 4.8 0.00 0.00 0.00 1006.0
20260506005136 -17 282 4.8 4.8 0.00 0.00 0.00 1006.0
20260506004633 -17 193 0.0 1.6 0.00 0.00 0.00 1006.0
20260506004130 -17 211 0.0 1.6 0.00 0.00 0.00 1005.7
20260506003626 -17 193 0.0 0.0 0.00 0.00 0.00 1005.7
20260506003122 -17 177 1.6 1.6 0.00 0.00 0.00 1005.0
20260506002619 -17 193 3.2 3.2 0.00 0.00 0.00 1005.3
20260506002114 -17 194 1.6 1.6 0.00 0.00 0.00 1005.7
20260506001611 -17 202 0.0 1.6 0.00 0.00 0.00 1005.3
20260506001108 -17 189 1.6 1.6 0.00 0.00 0.00 1005.3
20260506000606 -17 186 0.0 1.6 0.00 0.00 0.00 1005.7
20260505235601 -17 185 3.2 4.8 0.00 0.00 0.00 1005.7
20260505235057 -17 218 4.8 8.0 0.00 0.00 0.00 1005.7
20260505234554 -17 193 4.8 4.8 0.00 0.00 0.00 1005.7
20260505234051 -17 181 3.2 3.2 0.00 0.00 0.00 1005.3
20260505233548 -17 187 3.2 3.2 0.00 0.00 0.00 1005.0
20260505233046 -17 187 3.2 3.2 0.00 0.00 0.00 1005.3
20260505232543 -17 192 3.2 3.2 0.00 0.00 0.00 1005.0
20260505232041 -17 189 1.6 1.6 0.00 0.00 0.00 1005.3
20260505231537 -17 203 1.6 3.2 0.00 0.00 0.00 1005.3
20260505231036 -17 206 1.6 1.6 0.00 0.00 0.00 1005.0
20260505230533 -17 173 1.6 3.2 0.00 0.00 0.00 1005.3
20260505230029 -17 185 3.2 4.8 0.00 0.00 0.00 1005.3
20260505225526 -17 197 3.2 3.2 0.00 0.00 0.00 1005.3
20260505225022 -17 185 3.2 3.2 0.00 0.00 0.00 1005.0
20260505224520 -17 229 3.2 4.8 0.00 0.00 0.00 1005.0
20260505224017 -17 202 4.8 4.8 0.00 0.00 0.00 1005.0
20260505223514 -17 197 3.2 3.2 0.00 0.00 0.00 1005.0
20260505223010 -17 190 4.8 8.0 0.00 0.00 0.00 1005.0
20260505222506 -17 192 3.2 3.2 0.00 0.00 0.00 1005.0
20260505222002 -17 203 3.2 4.8 0.00 0.00 0.00 1005.0
20260505221500 -17 199 3.2 3.2 0.00 0.00 0.00 1005.0
20260505220957 -17 214 1.6 1.6 0.00 0.00 0.00 1005.3
20260505220453 -17 162 3.2 4.8 0.00 0.00 0.00 1005.7
20260505215951 -17 203 3.2 3.2 0.00 0.00 0.00 1005.0
20260505215449 -17 219 3.2 3.2 0.00 0.00 0.00 1005.3
20260505214946 -17 177 1.6 3.2 0.00 0.00 0.00 1005.0
20260505214444 -17 217 8.0 11.3 0.00 0.00 0.00 1005.0
20260505213941 -17 251 3.2 4.8 0.00 0.00 0.00 1005.7
20260505213439 -17 171 3.2 4.8 0.00 0.00 0.00 1005.3
20260505212935 -17 204 4.8 8.0 0.00 0.00 0.00 1005.3
20260505212432 -17 223 8.0 11.3 0.00 0.00 0.00 1005.3
20260505211928 -17 192 3.2 4.8 0.00 0.00 0.00 1005.3
20260505211426 -17 195 4.8 4.8 0.00 0.00 0.00 1005.3
20260505210922 -17 191 3.2 3.2 0.00 0.00 0.00 1005.7
20260505210420 -17 158 3.2 3.2 0.00 0.00 0.00 1005.7
20260505205916 -17 209 1.6 1.6 0.00 0.00 0.00 1005.3
20260505205415 -17 202 1.6 3.2 0.00 0.00 0.00 1005.7
20260505204911 -17 204 3.2 4.8 0.00 0.00 0.00 1005.7
20260505204409 -17 188 4.8 4.8 0.00 0.00 0.00 1005.7
20260505203906 -17 178 4.8 8.0 0.00 0.00 0.00 1005.7
20260505203402 -17 210 4.8 8.0 0.00 0.00 0.00 1005.7
20260505202859 -17 224 4.8 4.8 0.00 0.00 0.00 1005.7
20260505202355 -17 219 4.8 4.8 0.00 0.00 0.00 1005.7
20260505201852 -17 161 8.0 9.7 0.00 0.00 0.00 1005.7
20260505201349 -17 230 6.4 9.7 0.00 0.00 0.00 1006.0
20260505200847 -17 235 8.0 9.7 0.00 0.00 0.00 1006.0
20260505200344 -17 219 4.8 8.0 0.00 0.00 0.00 1005.7
20260505195839 -17 254 4.8 4.8 0.00 0.00 0.00 1006.0
20260505195337 -17 228 3.2 4.8 0.00 0.00 0.00 1005.7
20260505194834 -17 215 4.8 4.8 0.00 0.00 0.00 1005.7
20260505194331 -17 179 6.4 8.0 0.00 0.00 0.00 1005.7
20260505193826 -17 204 1.6 1.6 0.00 0.00 0.00 1006.0
20260505193324 -17 179 4.8 8.0 0.00 0.00 0.00 1005.7
20260505192822 -17 200 4.8 8.0 0.00 0.00 0.00 1005.7
20260505192320 -17 210 3.2 4.8 0.00 0.00 0.00 1005.7
20260505191818 -17 202 3.2 3.2 0.00 0.00 0.00 1005.7
20260505191316 -17 224 9.7 11.3 0.00 0.00 0.00 1006.0
20260505190812 -17 193 3.2 3.2 0.00 0.00 0.00 1005.7
20260505190307 -17 231 4.8 8.0 0.00 0.00 0.00 1005.7
20260505185804 -17 224 4.8 4.8 0.00 0.00 0.00 1006.0
20260505185300 -17 197 4.8 4.8 0.00 0.00 0.00 1006.0
20260505184756 -17 235 3.2 3.2 0.00 0.00 0.00 1006.0
20260505184253 -17 228 3.2 3.2 0.00 0.00 0.00 1006.0
20260505183751 -17 193 4.8 4.8 0.00 0.00 0.00 1006.0
20260505183248 -17 163 8.0 11.3 0.00 0.00 0.00 1006.0
20260505182744 -17 218 9.7 16.1 0.00 0.00 0.00 1006.0
20260505182241 -17 200 6.4 9.7 0.00 0.00 0.00 1006.0
20260505181737 -17 217 3.2 4.8 0.00 0.00 0.00 1006.0
20260505181235 -17 193 6.4 8.0 0.00 0.00 0.00 1006.4
20260505180731 -17 194 8.0 9.7 0.00 0.00 0.00 1006.4
20260505180228 -17 188 3.2 4.8 0.00 0.00 0.00 1006.0
20260505175724 -17 172 6.4 9.7 0.00 0.00 0.00 1005.7
20260505175221 -17 204 1.6 3.2 0.00 0.00 0.00 1005.7
20260505174718 -17 201 6.4 8.0 0.00 0.00 0.00 1006.0
20260505174215 -17 221 4.8 4.8 0.00 0.00 0.00 1006.0
20260505173710 -17 188 4.8 4.8 0.00 0.00 0.00 1005.7
20260505173208 -17 193 4.8 9.7 0.00 0.00 0.00 1005.3
20260505172705 -17 190 6.4 11.3 0.00 0.00 0.00 1005.0
20260505172201 -17 178 8.0 9.7 0.00 0.00 0.00 1005.3
20260505171701 -17 182 4.8 8.0 0.00 0.00 0.00 1005.3
20260505171159 -17 190 8.0 11.3 0.00 0.00 0.00 1006.4
20260505170655 -17 167 4.8 8.0 0.00 0.00 0.00 1007.5
20260505170152 -17 202 3.2 4.8 0.00 0.00 0.00 1007.1
20260505165652 -17 213 8.0 11.3 0.00 0.00 0.00 1006.8
20260505165148 -17 222 3.2 4.8 0.00 0.00 0.00 1006.8
20260505164644 -17 237 3.2 4.8 0.00 0.00 0.00 1006.0
20260505164142 -17 169 6.4 9.7 0.00 0.00 0.00 1006.0
20260505163640 -17 237 8.0 9.7 0.00 0.00 0.00 1006.0
20260505163138 -17 195 1.6 3.2 0.00 0.00 0.00 1006.0
20260505162635 -17 192 4.8 8.0 0.00 0.00 0.00 1006.0
20260505162132 -17 231 3.2 3.2 0.00 0.00 0.00 1006.0
20260505161629 -17 194 6.4 9.7 0.00 0.00 0.00 1006.0
20260505161126 -17 213 4.8 8.0 0.00 0.00 0.00 1006.0
20260505160624 -17 220 4.8 4.8 0.00 0.00 0.00 1006.0